Regional Weather Roundup
Issued by NWS Albany, NY

Home | Current Version | Previous Version | Text Only | Print | Product List | Glossary On
Versions: 1 2 3 4 5 6 7 8 9 10 11 12 13 14 15 16 17 18 19 20 21 22 23 24 25 26 27 28 29 30 31 32 33 34 35 36 37 38 39 40 41 42 43 44 45 46 47 48 49 50
543
ASUS41 KALY 191510
RWRALY

NEW YORK STATE HOURLY WEATHER ROUNDUP
NATIONAL WEATHER SERVICE ALBANY NY
1100 AM EDT SAT AUG 19 2017

NOTE: "FAIR" INDICATES FEW OR NO CLOUDS BELOW 12,000 FEET WITH NO
SIGNIFICANT WEATHER AND/OR NO OBSTRUCTIONS TO VISIBILITY.

NYZ032-033-038>043-046>054-057>066-NYZ062>081-082-084-191600-
EAST


CITY           SKY/WX    TMP DP  RH WIND       PRES   REMARKS
ALBANY         PTSUNNY   78  65  63 NW8       29.84S
GLENS FALLS    PTSUNNY   77  65  66 SW7       29.82S
POUGHKEEPSIE   MOSUNNY   78  67  68 VRB3      29.85R
NEWBURGH       MOSUNNY   77  68  73 W12       29.88R
MONTGOMERY     MOSUNNY   80  66  62 CALM      29.86S
WHITE PLAINS   MOSUNNY   81  66  60 CALM      29.87R
ISLIP          PTSUNNY   84  67  56 CALM      29.85S
NEW YORK CITY  MOSUNNY   83  65  54 NW7       29.85S
CENTRAL PARK   SUNNY     82  65  56 N6        29.89S
$$

NYZ005>009-017-018-044>046-055-056-191600-
CENTRAL


CITY           SKY/WX    TMP DP  RH WIND       PRES   REMARKS
FULTON         CLOUDY    74  63  68 W9        29.86R
SYRACUSE       CLOUDY    73  62  68 W14       29.86R
ROME           CLOUDY    74  65  73 SW14G20   29.86R
ELMIRA         MOSUNNY   76  62  62 VRB5      29.89R
BINGHAMTON     PTSUNNY   71  61  70 W6        29.92R
MONTICELLO     MOSUNNY   74  64  71 NW6       29.92S
$$

NYZ026>034-041>043-087-191600-
NORTH


CITY           SKY/WX    TMP DP  RH WIND       PRES   REMARKS
WATERTOWN      CLOUDY    71  66  84 W12       29.82R
FORT DRUM      NOT AVBL
OGDENSBURG     FAIR      76  64  65 SW9       29.78S
MASSENA        MOSUNNY   75  66  73 SW10      29.78S
SARANAC LAKE   CLOUDY    71  65  81 SW12G18   29.83R
PLATTSBURGH    CLOUDY    75  67  76 SE6       29.77S
$$

NYZ001>004-010>016-019>021-085-191600-
WEST


CITY           SKY/WX    TMP DP  RH WIND       PRES   REMARKS
NIAGARA FALLS  MOSUNNY   75  59  57 SW13      29.86R
BUFFALO        PTSUNNY   72  60  66 SW15G21   29.86F
DUNKIRK        CLOUDY    72  64  76 W9        29.89R
JAMESTOWN      CLOUDY    70  61  73 W14       29.93S
WELLSVILLE     MOSUNNY   73  60  63 W13       29.95R
ROCHESTER      CLOUDY    73  57  57 NW14      29.87R
PENN YAN       CLOUDY    71  60  68 VRB5      29.90R
$$

             KEY
       WCI = WIND CHILL INDEX
       VSB = VISIBILITY
       HX  = HEAT INDEX
$$




USA.gov is the U.S. government's official web portal to all federal, state and local government web resources and services.